Tracking 25195 objects as of 19-Jan-2022
HD Live streaming from Space Station
objects crossing your sky now

HETE 2

Track HETE 2 now!
10-day predictions
HETE 2 is classified as:


NORAD ID: 26561
Int'l Code: 2000-061A
Perigee: 534.1 km
Apogee: 558.0 km
Inclination: 2.0 °
Period: 95.4 minutes
Semi major axis: 6917 km
RCS: 0.631 m2 (medium)
Launch date: October 9, 2000
Source: United States (US)
Launch site: Kwajalein (KWAJ)

Designed to detect and localize gamma-ray bursts.
aabbcc
Your satellite tracking list
Your tracking list is empty




NASA's NSSDC Master Catalog

Two Line Element Set (TLE):
1 26561U 00061A   22019.33937201  .00003341  00000-0  14838-3 0  9997
2 26561   1.9506  20.0483 0017339  22.5130 337.5672 15.09111248168444
Source of the keplerian elements: AFSPC